[[{"header":{"parameterUnit":"m.s-1","parameterCategory":1,"la1":30.2992,"la2":30.254,"lo1":-89.0895,"lo2":-89.0443,"dy":0.0025,"dx":0.0025,"nx":19,"ny":19,"refTime":"2026-05-05T09:00:00:Z","depth":0,"parameterNumber":2,"parameterNumberName":"U-component_of_WINDS"},"data":[0,0,0,-1.9448,-1.9449,-1.9485,-1.9485,-1.9529,-1.9529,0,0,0,0,0,0,0,0,0,0,0,-1.9435,-1.9435,-1.9448,-1.9449,-1.9485,-1.9485,-1.9529,-1.9529,0,0,0,0,0,0,0,0,0,0,0,-1.9435,-1.9435,-1.9436,-1.9449,-1.9485,-1.9485,-1.9529,-1.9503,0,0,0,0,0,0,0,0,0,0,-1.9468,-1.9454,-1.9435,-1.9436,-1.9449,-1.9485,-1.9485,-1.9501,-1.9504,-1.9512,0,-1.9517,0,-1.9524,-1.9532,-1.9532,0,0,0,-1.945,-1.9452,-1.9463,-1.9436,-1.9449,-1.9485,-1.9469,-1.9503,-1.9506,-1.9515,-1.9518,-1.952,-1.9525,-1.9532,-1.9533,-1.957,-1.957,0,0,-1.9448,-1.9441,-1.9461,-1.9465,-1.9459,-1.9468,-1.947,-1.9505,-1.9507,-1.9518,-1.9521,-1.9525,-1.9533,-1.9533,-1.957,-1.957,0,0,0,-1.9442,-1.9439,-1.945,-1.9463,-1.947,-1.9469,-1.9471,-1.9506,-1.951,-1.9521,-1.9526,-1.9533,-1.9533,-1.957,-1.957,-1.9567,0,0,0,-1.944,-1.9435,-1.9449,-1.9445,-1.9469,-1.9488,-1.9471,-1.9507,-1.9512,-1.9526,-1.9533,-1.9534,-1.957,-1.957,-1.9567,-1.9567,0,0,0,-1.9434,-1.9435,-1.9439,-1.9444,-1.946,-1.9488,-1.9494,-1.9508,-1.9514,-1.9532,-1.9534,-1.9569,-1.957,-1.9567,-1.9566,-1.9574,0,0,0,-1.9424,-1.9436,-1.9439,-1.9454,-1.9459,-1.9486,-1.9494,-1.9514,-1.9529,-1.9533,-1.957,-1.957,-1.9567,-1.9566,-1.9574,-1.9578,-1.958,0,0,-1.9435,-1.9437,-1.9447,-1.945,-1.9474,-1.9481,-1.9505,-1.9526,-1.9535,-1.9558,-1.9559,-1.9567,-1.9566,-1.9574,-1.9592,-1.9593,0,0,0,-1.9447,-1.9454,-1.9462,-1.9476,-1.9493,-1.9507,-1.9525,-1.9534,-1.9554,-1.9545,-1.9572,-1.9572,-1.9577,-1.958,-1.9581,-1.9585,-1.9571,-1.9571,-1.9571,-1.945,-1.9462,-1.9478,-1.9494,-1.9508,-1.9527,-1.954,-1.9554,-1.9561,-1.9568,-1.9574,-1.9583,-1.9586,-1.9587,-1.9592,-1.9578,-1.9578,-1.9578,-1.9578,-1.9467,-1.9478,-1.9488,-1.9508,-1.952,-1.9537,-1.9557,-1.9562,-1.958,-1.9579,-1.9584,-1.9582,-1.9588,-1.9592,-1.9578,-1.9578,-1.9578,-1.9578,-1.9578,-1.9469,-1.9476,-1.9486,-1.9509,-1.9525,-1.9541,-1.9558,-1.9569,-1.9579,-1.9584,-1.9592,-1.9592,-1.9593,-1.9588,-1.9588,-1.9588,-1.9588,-1.9588,-1.9588,-1.9467,-1.9479,-1.9492,-1.9511,-1.9522,-1.9538,-1.956,-1.9571,-1.9586,-1.9593,-1.9593,-1.9599,-1.9586,-1.9582,-1.9588,-1.9588,-1.9588,-1.9588,-1.9588,-1.9478,-1.9478,-1.9497,-1.9508,-1.9533,-1.9549,-1.9563,-1.9586,-1.9597,-1.9605,-1.9612,-1.96,-1.9603,-1.9603,-1.9599,-1.9609,-1.9609,-1.9609,-1.9609,-1.948,-1.9483,-1.9506,-1.9523,-1.9541,-1.9556,-1.9579,-1.9596,-1.9614,-1.9622,-1.9623,-1.962,-1.9619,-1.9622,-1.9621,-1.9618,-1.9633,-1.9633,-1.9633,-1.9487,-1.9493,-1.9509,-1.9526,-1.9547,-1.9564,-1.9586,-1.9607,-1.9627,-1.9634,-1.9629,-1.9628,-1.9623,-1.9621,-1.9626,-1.9624,-1.9619,0,0]},{"header":{"parameterUnit":"m.s-1","parameterCategory":1,"la1":30.2992,"la2":30.254,"lo1":-89.0895,"lo2":-89.0443,"dy":0.0025,"dx":0.0025,"nx":19,"ny":19,"refTime":"2026-05-05T09:00:00:Z","depth":0,"parameterNumber":3,"parameterNumberName":"V-component_of_WINDS"},"data":[0,0,0,6.5235,6.5237,6.5312,6.5312,6.5424,6.5425,0,0,0,0,0,0,0,0,0,0,0,6.5225,6.5226,6.5235,6.5237,6.5312,6.5312,6.5424,6.5425,0,0,0,0,0,0,0,0,0,0,0,6.5224,6.5226,6.5227,6.5238,6.5312,6.5312,6.5423,6.5361,0,0,0,0,0,0,0,0,0,0,6.5285,6.5288,6.5225,6.5227,6.5238,6.5312,6.5312,6.5357,6.5365,6.5398,0,6.5432,0,6.5431,6.5434,6.5434,0,0,0,6.5228,6.5282,6.5292,6.5228,6.5239,6.5312,6.5275,6.5361,6.537,6.5408,6.5434,6.5437,6.5433,6.5435,6.5435,6.5664,6.5666,0,0,6.5224,6.5244,6.5286,6.5298,6.529,6.5273,6.5278,6.5366,6.5395,6.5434,6.544,6.5435,6.5436,6.5437,6.5663,6.5665,0,0,0,6.5218,6.5242,6.5249,6.5294,6.5306,6.5276,6.5281,6.5391,6.5392,6.5441,6.5436,6.5436,6.5438,6.5661,6.5664,6.5761,0,0,0,6.5215,6.5238,6.5248,6.5261,6.5305,6.535,6.5305,6.5386,6.5395,6.5435,6.5436,6.5439,6.5659,6.5662,6.5754,6.5803,0,0,0,6.5216,6.5238,6.5254,6.5262,6.5295,6.5348,6.5353,6.5387,6.5393,6.5434,6.544,6.5658,6.5662,6.5749,6.5794,6.5871,0,0,0,6.5222,6.5337,6.5256,6.5382,6.5295,6.5408,6.5353,6.5435,6.5483,6.5437,6.566,6.5663,6.5747,6.5788,6.5865,6.5941,6.5974,0,0,6.5378,6.5356,6.5429,6.5358,6.5492,6.5395,6.5542,6.5564,6.5547,6.5626,6.5631,6.5756,6.5793,6.587,6.6151,6.6177,0,0,0,6.5485,6.5538,6.5569,6.5617,6.5638,6.5661,6.5659,6.5667,6.5733,6.5593,6.5804,6.5825,6.5869,6.5904,6.5927,6.5964,6.568,6.568,6.5679,6.5736,6.5711,6.583,6.5815,6.5862,6.586,6.5895,6.5906,6.5864,6.5915,6.5938,6.6112,6.6154,6.6171,6.621,6.5975,6.5975,6.5976,6.5976,6.5964,6.6035,6.598,6.6077,6.6049,6.6128,6.6131,6.61,6.6169,6.6092,6.6129,6.6049,6.6201,6.6234,6.5983,6.5982,6.5981,6.598,6.598,6.6126,6.6156,6.6166,6.6234,6.6288,6.6267,6.6338,6.6309,6.6282,6.6319,6.6342,6.634,6.6336,6.6332,6.6332,6.6333,6.6333,6.6334,6.6334,6.6292,6.63,6.6364,6.6398,6.6426,6.6458,6.6458,6.6483,6.6504,6.6478,6.6478,6.6433,6.622,6.6169,6.6343,6.6342,6.6341,6.634,6.6339,6.6534,6.6475,6.6575,6.6603,6.6641,6.6697,6.666,6.6715,6.6732,6.6768,6.6714,6.6562,6.6537,6.6518,6.6475,6.6719,6.6719,6.6719,6.6719,6.6673,6.6658,6.6754,6.6801,6.6843,6.682,6.6932,6.6933,6.6924,6.6932,6.6893,6.6832,6.6815,6.68,6.6776,6.6735,6.704,6.704,6.704,6.6821,6.6809,6.6911,6.6904,6.6932,6.6956,6.7061,6.7116,6.7093,6.7053,6.6939,6.6925,6.6828,6.6797,6.6756,6.6719,6.6644,0,0]}]]